Location: ?????
(42.2640°N, 43.4211°E)
Time: 01:45:53
(UTC+00:00)

Meteor 2-21 Rocket - Pass Details

Date: 07 August 2020
Orbit: 936 x 967 km, 82.6° (Epoch: 23 September)

Event Time Altitude Azimuth Distance (km) Brightness Sun altitude
Rises 00:56:47 0° 348° (NNW) 3,604 7.8 -11.9°
Reaches altitude 10° 00:59:18 10° 345° (NNW) 2,656 7.1 -11.5°
Maximum altitude 01:05:15 61° 267° (W) 1,059 4.5 -10.6°
Drops below altitude 10° 01:11:11 10° 188° (S) 2,650 6.4 -9.7°
Sets 01:13:42 0° 185° (S) 3,594 7.1 -9.3°
